Pecs, Hungary

7:39 PM CEST on May 22, 2018 (GMT +0200)
Pecs

Weather History for LHPP - February, 2018

Change the Weather History Date:

Wednesday, February 14, 2018

  Actual Average Record
Temperature  
Mean Temperature 33 °F -  
Max Temperature 34 °F 46 °F - ()
Min Temperature 32 °F 32 °F - ()
Degree Days  
Heating Degree Days 32    
Moisture  
Dew Point 30 °F    
Average Humidity 87    
Maximum Humidity 93    
Minimum Humidity 72    
Precipitation  
Precipitation 0.03 in 0.05 in - ()
Sea Level Pressure  
Sea Level Pressure 29.92 in    
Wind  
Wind Speed 6 mph ()    
Max Wind Speed 11 mph    
Max Gust Speed -    
Visibility 4.8 miles    
Events Snow    
T = Trace of Precipitation, MM = Missing Value Source: Averaged Metar Reports

Daily Weather History Graph

Daily Weather History Graph

Search for Another Location

Airport or City:

Astronomy

Feb. 14, 2018 Rise Set
Actual Time 6:51 AM CET 5:11 PM CET
Civil Twilight 6:20 AM CET 5:42 PM CET
Nautical Twilight 5:45 AM CET 6:17 PM CET
Astronomical Twilight 5:11 AM CET 6:52 PM CET
Moon 6:04 AM CET (2/14) 3:51 PM CET (2/14)
Length of Visible Light 11h 21m
Length of Day
10h 19m
Waning Crescent, 2% of the Moon is Illuminated
Feb 14
Waning Crescent
Feb 15
New
Feb 23
First Quarter
Mar 2
Full
Mar 9
Last Quarter

Hourly Weather History & Observations

Time (CET) Temp. Windchill Dew Point Humidity Pressure Visibility Wind Dir Wind Speed Gust Speed Precip Events Conditions
1:00 AM 33 °F - 30 °F 86% 29.86 in - WNW 4.5 mph - -  
2:00 AM 33 °F - 31 °F 89% 29.86 in - NW 6.7 mph - -  
3:00 AM 33 °F - 31 °F 89% 29.85 in - WNW 6.7 mph - -  
4:00 AM 33 °F - 31 °F 88% 29.85 in - WNW 6.7 mph - -  
5:00 AM 33 °F - 31 °F 90% 29.84 in - WNW 6.7 mph - -  
6:00 AM 33 °F - 31 °F 90% 29.85 in - NW 6.7 mph - -  
6:15 AM 32.0 °F 25.6 °F 30.2 °F 93% 29.83 in 6.2 mi NW 6.9 mph - N/A Snow Light Snow
6:45 AM 32.0 °F 24.8 °F 30.2 °F 93% 29.83 in 6.2 mi NNW 8.1 mph - N/A Snow Light Snow
7:00 AM 33 °F - 30 °F 86% 29.87 in 6 mi NNW 8.9 mph - - Snow Light Snow
7:15 AM 32.0 °F 26.4 °F 30.2 °F 93% 29.86 in 6.2 mi NNW 5.8 mph - N/A Snow Light Snow
7:45 AM 32.0 °F 25.6 °F 30.2 °F 93% 29.86 in 3.7 mi NW 6.9 mph - N/A Snow Light Snow
7:46 AM 32.0 °F 25.6 °F 30.2 °F 93% 29.89 in 2.5 mi NW 6.9 mph - N/A Snow Light Snow
8:00 AM 32 °F - 31 °F 92% 29.88 in 4 mi NW 6.7 mph - - Snow Light Snow
8:15 AM 32.0 °F 25.6 °F 30.2 °F 93% 29.86 in 3.7 mi NNW 6.9 mph - N/A Snow Light Snow
8:42 AM 32.0 °F 25.6 °F 30.2 °F 93% 29.86 in - NNW 6.9 mph - N/A   Unknown
8:45 AM 32.0 °F 26.4 °F 30.2 °F 93% 29.86 in 2.5 mi NNW 5.8 mph - N/A Snow Light Snow
9:00 AM 33 °F - 31 °F 89% 29.90 in 2 mi NNW 6.7 mph - - Snow Light Snow
9:15 AM 33.8 °F 27.7 °F 30.2 °F 87% 29.89 in 2.5 mi NW 6.9 mph - N/A Snow Light Snow
9:45 AM 33.8 °F 27.7 °F 30.2 °F 87% 29.89 in 3.7 mi NW 6.9 mph - N/A   Overcast
10:00 AM 33 °F - 31 °F 89% 29.91 in 4 mi NW 6.7 mph - - Snow Light Snow
10:15 AM 33.8 °F 26.4 °F 30.2 °F 87% 29.89 in 5.0 mi NW 9.2 mph - N/A   Overcast
10:45 AM 33.8 °F 25.8 °F 30.2 °F 87% 29.89 in 6.2 mi NNW 10.4 mph - N/A   Overcast
11:00 AM 34 °F - 30 °F 80% 29.93 in 6 mi NNW 11.2 mph - -   Partly Cloudy
11:15 AM 33.8 °F 27.0 °F 30.2 °F 87% 29.89 in 6.2 mi NW 8.1 mph - N/A   Overcast
11:45 AM 33.8 °F 27.7 °F 30.2 °F 87% 29.92 in 5.0 mi NW 6.9 mph - N/A   Overcast
12:00 PM 34 °F - 31 °F 84% 29.94 in 5 mi NW 6.7 mph - -   Partly Cloudy
12:15 PM - - - N/A% - 5.0 mi NNW 9.2 mph - N/A   Overcast
12:45 PM 33.8 °F 27.0 °F 32.0 °F 93% 29.92 in 4.3 mi NNW 8.1 mph - N/A   Overcast
1:00 PM 34 °F - 31 °F 85% 29.95 in 4 mi NNW 6.7 mph - -   Partly Cloudy
1:15 PM 33.8 °F 27.7 °F 32.0 °F 93% 29.92 in 4.3 mi NW 6.9 mph - N/A   Overcast
1:45 PM 33.8 °F 29.6 °F 32.0 °F 93% 29.92 in 3.7 mi NNW 4.6 mph - N/A Snow Light Snow
2:00 PM 33 °F - 31 °F 90% 29.96 in 4 mi NNW 4.5 mph - - Snow Light Snow
2:15 PM 33.8 °F 28.6 °F 32.0 °F 93% 29.92 in 5.0 mi NW 5.8 mph - N/A   Overcast
2:45 PM 33.8 °F 27.7 °F 30.2 °F 87% 29.92 in 5.0 mi NNW 6.9 mph - N/A   Overcast
3:00 PM 35 °F - 31 °F 78% 29.96 in 5 mi NNW 6.7 mph - - Snow Light Snow
3:15 PM - - - N/A% - 5.0 mi NNW 8.1 mph - N/A   Overcast
3:45 PM 33.8 °F 27.0 °F 30.2 °F 87% 29.95 in 5.0 mi NW 8.1 mph - N/A   Overcast
4:00 PM 35 °F - 31 °F 78% 29.98 in 5 mi NW 8.9 mph - - Snow Light Snow
4:15 PM 33.8 °F 27.0 °F 30.2 °F 87% 29.95 in 5.0 mi NNW 8.1 mph - N/A   Overcast
4:45 PM 33.8 °F 26.4 °F 30.2 °F 87% 29.98 in 6.2 mi NNW 9.2 mph - N/A   Overcast
5:00 PM 34 °F - 31 °F 82% 30.00 in 6 mi NNW 8.9 mph - -   Partly Cloudy
5:15 PM 33.8 °F 26.4 °F 30.2 °F 87% 29.98 in 6.2 mi NNW 9.2 mph - N/A   Overcast
5:45 PM 33.8 °F 26.4 °F 30.2 °F 87% 30.01 in 6.2 mi NNW 9.2 mph - N/A   Overcast
7:00 PM 34 °F - 30 °F 78% 30.04 in - NNW 8.9 mph - -  
8:00 PM 34 °F - 29 °F 75% 30.06 in - NNW 6.7 mph - -  
9:00 PM 34 °F - 28 °F 72% 30.08 in - NW 8.9 mph - -  
10:00 PM 33 °F - 28 °F 77% 30.09 in - NW 6.7 mph - -  
11:00 PM 33 °F - 28 °F 75% 30.10 in - WNW 6.7 mph - -